TimeEDT,TemperatureF,Dew PointF,Humidity,Sea Level PressureIn,VisibilityMPH,Wind Direction,Wind SpeedMPH,Gust SpeedMPH,PrecipitationIn,Events,Conditions,WindDirDegrees,DateUTC
12:20 AM,46.4,37.4,71,30.16,10.0,WNW,8.1,-,N/A,,Mostly Cloudy,290,2012-10-08 04:20:00
12:27 AM,46.4,37.4,71,30.16,10.0,WNW,5.8,-,N/A,,Mostly Cloudy,300,2012-10-08 04:27:00
12:55 AM,45.3,37.6,74,30.18,10.0,West,4.6,-,N/A,,Partly Cloudy,270,2012-10-08 04:55:00
1:55 AM,45.7,37.4,73,30.20,10.0,West,4.6,-,N/A,,Overcast,280,2012-10-08 05:55:00
2:01 AM,44.6,37.4,76,30.20,10.0,Calm,Calm,-,N/A,,Overcast,0,2012-10-08 06:01:00
2:19 AM,44.6,39.2,81,30.20,10.0,Calm,Calm,-,N/A,,Scattered Clouds,0,2012-10-08 06:19:00
2:55 AM,42.1,37.6,84,30.19,10.0,Calm,Calm,-,N/A,,Clear,0,2012-10-08 06:55:00
3:55 AM,42.1,36.9,82,30.19,5.0,Variable,3.5,-,N/A,,Haze,0,2012-10-08 07:55:00
4:55 AM,40.6,36.5,85,30.20,10.0,Calm,Calm,-,N/A,,Clear,0,2012-10-08 08:55:00
5:55 AM,39.7,35.6,85,30.24,10.0,Calm,Calm,-,N/A,,Clear,0,2012-10-08 09:55:00
6:55 AM,37.4,35.8,94,30.26,10.0,Calm,Calm,-,N/A,,Clear,0,2012-10-08 10:55:00
7:55 AM,40.1,37.8,91,30.27,10.0,Calm,Calm,-,N/A,,Clear,0,2012-10-08 11:55:00
8:55 AM,43.7,36.0,74,30.29,10.0,Calm,Calm,-,N/A,,Mostly Cloudy,0,2012-10-08 12:55:00
9:55 AM,46.2,37.4,71,30.29,10.0,Calm,Calm,-,N/A,,Scattered Clouds,0,2012-10-08 13:55:00
10:55 AM,48.6,38.7,69,30.27,10.0,Calm,Calm,-,N/A,,Mostly Cloudy,0,2012-10-08 14:55:00
11:55 AM,49.3,39.0,68,30.28,10.0,East,3.5,-,N/A,,Scattered Clouds,80,2012-10-08 15:55:00
12:55 PM,50.7,38.5,63,30.30,10.0,SSE,3.5,-,N/A,,Partly Cloudy,160,2012-10-08 16:55:00
1:55 PM,49.8,38.3,65,30.28,10.0,Calm,Calm,-,N/A,,Partly Cloudy,0,2012-10-08 17:55:00
2:55 PM,50.2,38.7,65,30.27,10.0,Calm,Calm,-,N/A,,Clear,0,2012-10-08 18:55:00
3:55 PM,50.2,39.9,68,30.29,10.0,SSW,9.2,-,N/A,,Clear,210,2012-10-08 19:55:00
4:55 PM,48.9,37.6,65,30.28,10.0,South,10.4,-,N/A,,Clear,190,2012-10-08 20:55:00
5:25 PM,48.2,37.4,66,30.29,10.0,SSW,6.9,-,N/A,,Light Drizzle,200,2012-10-08 21:25:00
5:41 PM,48.2,39.2,71,30.30,10.0,SW,8.1,-,N/A,,Scattered Clouds,220,2012-10-08 21:41:00
5:55 PM,47.3,38.8,72,30.29,10.0,SW,5.8,-,0.00,,Mostly Cloudy,230,2012-10-08 21:55:00
6:09 PM,48.2,39.2,71,30.29,10.0,West,5.8,-,N/A,,Light Drizzle,260,2012-10-08 22:09:00
6:55 PM,46.4,40.6,80,30.28,10.0,West,3.5,-,0.00,,Light Drizzle,260,2012-10-08 22:55:00
7:10 PM,46.4,41.0,81,30.27,10.0,Calm,Calm,-,N/A,,Mostly Cloudy,0,2012-10-08 23:10:00
7:55 PM,45.7,43.2,91,30.27,10.0,Calm,Calm,-,0.00,,Overcast,0,2012-10-08 23:55:00
8:26 PM,46.4,42.8,87,30.27,10.0,Calm,Calm,-,N/A,,Light Drizzle,0,2012-10-09 00:26:00
8:40 PM,44.6,42.8,93,30.27,10.0,Calm,Calm,-,N/A,,Mostly Cloudy,0,2012-10-09 00:40:00
8:55 PM,45.3,42.8,91,30.27,10.0,Calm,Calm,-,0.00,,Overcast,0,2012-10-09 00:55:00
9:47 PM,46.4,42.8,87,30.27,10.0,Calm,Calm,-,N/A,,Light Drizzle,0,2012-10-09 01:47:00
9:55 PM,45.5,43.0,91,30.27,10.0,Calm,Calm,-,0.00,,Light Drizzle,0,2012-10-09 01:55:00
10:02 PM,44.6,42.8,93,30.26,10.0,Calm,Calm,-,N/A,,Overcast,0,2012-10-09 02:02:00
10:55 PM,45.9,39.2,78,30.26,10.0,Calm,Calm,-,0.00,,Mostly Cloudy,0,2012-10-09 02:55:00
11:55 PM,46.2,38.5,74,30.25,10.0,Calm,Calm,-,N/A,,Mostly Cloudy,0,2012-10-09 03:55:00